Starlink 11148

operational
NORAD ID: 60044 Int'l Des: 2024-112 Owner: SPXS Country: US Constellation: starlink
LEOCIRCULAR

关于 Starlink 11148

正在加载描述...

实时位置

正在加载3D地球...

即将过境

高度历史

Altitude vs Time

uPlot chart will show altitude changes over time

两行轨道根数

1 60044U 24112G 25353.29118916 .00007213 00000-0 64432-4 0 9995
2 60044 53.1598 302.5935 0001393 76.4264 283.6909 15.69675360 88358
Epoch: Dec 19, 2025 • Age: 26 hours

当前状态

高度 378.2 km
速度 7.68 km/s
星下点 -50.55°S, 34.72°W
发射日期 Jun 8, 2024
运行时间 1.5 years
类型 internet

技术详情

分类 Payload
质量 960.00 kg
干质量 910.00 kg
总质量 960.00 kg
长度 0.30 m
直径 4.10 m
跨度 29.00 m
形状 Box + pan
制造商 SPXS
平台类型 Starlink V2MD
阶段状态 In Orbit
所有者/国家 SPXS/US

大型星座

Loading constellations...